Flag for Germany Weather past 2 weeks in Leipzig, Saxony, Germany

Now
57 °F

Clear.


Feels Like: 56 °F
Forecast: 53 / 68 °F
Wind: 7 mph from South

Location: Leipzig-Schkeuditz

Current Time: May 25, 2015 at 1:29:59 AM

Latest Report: May 25, 2015 at 12:50 AM


Visibility: 10 mi

Pressure: 30.01 "Hg

Humidity: 77%

Dew point: 50 °F

Location of LeipzigLocation

Historic Weather in Leipzig — Graph

°F

Leipzig temperature yesterday

Maximum temperature yesterday: 68 °F (at 3:50 PM)
Minimum temperature yesterday: 52 °F (at 2:50 AM)
Average temperature yesterday: 59 °F

Past Weeks' High & Low Weather Summary

 TemperatureHumidityPressure
High82 °F (May 12, 3:20 PM)100% (May 15, 5:50 AM)30.36 "Hg (May 15, 5:50 AM)
Low39 °F (May 15, 4:50 AM)25% (May 12, 3:50 PM)29.62 "Hg (May 19, 1:50 AM)
Average56 °F63%30.06 "Hg
* Reported May 10 12:20 AM — May 25 12:20 AM, Leipzig, Weather by CustomWeather, © 2015

Note: Actual official high and low records may vary slightly from our data, if they occured in-between our weather recording intervals... More about our weather records

Advertising

Leipzig weather history for previous 24 hours

 ConditionsComfort  
Time TempWeatherWind HumidityBarometerVisibility
12:20 AM
Mon, May 25
57 °FClear.6 mph72%30.01 "Hg10 mi
11:20 PM
Sun, May 24
59 °FClear.6 mph68%30.01 "Hg10 mi
10:50 PM61 °FClear.5 mph63%30.01 "Hg10 mi
10:20 PM61 °FClear.5 mph63%30.04 "Hg10 mi
9:50 PM61 °FSunny.5 mph63%30.04 "Hg10 mi
9:20 PM61 °FSunny.3 mph59%30.04 "Hg10 mi
8:50 PM63 °FSunny.2 mph56%30.04 "Hg10 mi
8:20 PM64 °FSunny.3 mph52%30.04 "Hg10 mi
7:50 PM66 °FSunny.5 mph52%30.04 "Hg10 mi
7:20 PM66 °FPassing clouds.5 mph49%30.04 "HgN/A
6:50 PM66 °FSunny.7 mph49%30.04 "Hg10 mi
6:20 PM68 °FSunny.6 mph46%30.04 "Hg10 mi
5:50 PM68 °FSunny.5 mph43%30.04 "Hg10 mi
5:20 PM66 °FSunny.3 mph46%30.07 "Hg10 mi
4:50 PM68 °FPassing clouds.5 mph43%30.07 "HgN/A
4:20 PM68 °FPartly sunny.7 mph46%30.07 "HgN/A
3:50 PM68 °FPartly sunny.2 mph43%30.07 "HgN/A
3:20 PM66 °FPartly sunny.6 mph46%30.09 "HgN/A
2:50 PM64 °FPartly sunny.5 mph49%30.09 "HgN/A
2:20 PM64 °FPartly sunny.5 mph49%30.09 "HgN/A
1:50 PM64 °FPartly sunny.5 mph49%30.12 "HgN/A
1:20 PM63 °FPartly sunny.5 mph52%30.12 "HgN/A
12:50 PM63 °FPartly sunny.2 mph52%30.12 "HgN/A
12:20 PM63 °FBroken clouds.3 mph52%30.12 "HgN/A
11:50 AM61 °FBroken clouds.2 mph52%30.12 "HgN/A
11:20 AM59 °FBroken clouds.3 mph55%30.12 "HgN/A
10:50 AM59 °FBroken clouds.5 mph55%30.12 "HgN/A
10:20 AM59 °FBroken clouds.5 mph55%30.12 "HgN/A
9:50 AM59 °FBroken clouds.3 mph55%30.15 "HgN/A
9:20 AM57 °FBroken clouds.5 mph63%30.15 "HgN/A
8:50 AM55 °FBroken clouds.5 mph72%30.12 "HgN/A
8:20 AM54 °FPartly sunny.5 mph82%30.12 "HgN/A
7:50 AM54 °FPartly sunny.6 mph82%30.12 "HgN/A
7:20 AM54 °FPartly sunny.7 mph82%30.12 "HgN/A
6:50 AM52 °FPartly sunny.6 mph82%30.12 "HgN/A
6:20 AM52 °FOvercast.9 mph82%30.12 "HgN/A
5:50 AM52 °FOvercast.6 mph88%30.12 "HgN/A
5:20 AM52 °FOvercast.7 mph88%30.12 "HgN/A
4:50 AM52 °FPassing clouds.5 mph88%30.12 "HgN/A
4:20 AM52 °FPassing clouds.6 mph88%30.12 "HgN/A
3:50 AM52 °FPassing clouds.5 mph88%30.12 "HgN/A
3:20 AM52 °FClear.5 mph88%30.12 "Hg10 mi
2:50 AM52 °FClear.6 mph88%30.12 "Hg10 mi
2:20 AM54 °FClear.6 mph82%30.09 "Hg10 mi
1:50 AM54 °FClear.6 mph88%30.12 "Hg10 mi
1:20 AM54 °FClear.8 mph88%30.12 "Hg10 mi
Weather by CustomWeather, © 2015

See weather overviewHow to use our weather pages